period_start,C,m1,H,J0,J1,J2,J3,J4,J5,JA,JB,JC,JD,JJ,JK,JN,#
2017-12-18 00:04:50,0.09,3.75,0.00,16.05,19.27,22.61,14.43,46.82,1024.93,2056.01,2190.42,2281.71,2614.59,599.75,615.11,37.23,0000 0000 0000 0000 000000
2017-12-18 00:09:52,0.12,3.75,0.00,16.07,19.26,22.58,14.40,46.69,1024.96,2056.01,2188.94,2280.70,2613.38,599.99,615.37,37.28,0000 0000 0000 0000 000000
2017-12-18 00:14:54,0.11,3.76,0.00,16.07,19.25,22.57,14.38,46.79,1024.94,2056.02,2187.26,2279.69,2612.26,599.83,615.13,37.33,0000 0000 0000 0000 000000
2017-12-18 00:19:55,0.12,3.77,0.00,16.07,19.24,22.58,14.42,46.84,1024.92,2056.02,2185.57,2278.68,2611.05,600.01,615.27,37.38,0000 0000 0000 0000 000000
2017-12-18 00:24:56,0.15,3.77,0.00,16.06,19.24,22.61,14.32,46.83,1024.92,2056.01,2183.61,2277.36,2609.56,599.90,615.23,37.43,0000 0000 0000 0000 000000
2017-12-18 00:29:57,0.14,3.78,0.00,16.04,19.24,22.54,14.38,46.81,1024.92,2056.01,2181.73,2276.07,2608.07,600.13,615.49,37.48,0000 0000 0000 0000 000000
2017-12-18 00:34:58,0.15,3.79,0.00,16.04,19.24,22.55,14.43,46.83,1024.92,2056.01,2179.86,2274.86,2606.71,600.19,615.60,37.53,0000 0000 0000 0000 000000
2017-12-18 00:40:00,0.14,3.79,0.00,16.05,19.22,22.56,14.43,46.85,1024.92,2056.01,2177.82,2273.64,2605.37,600.07,615.49,37.59,0000 0000 0000 0000 000000
2017-12-18 00:45:01,0.13,3.80,0.00,16.05,19.22,22.55,14.41,46.85,1024.92,2056.01,2175.88,2272.48,2603.96,600.07,615.45,37.64,0000 0000 0000 0000 000000
2017-12-18 00:50:02,0.16,3.81,0.00,16.06,19.22,22.54,14.36,46.81,1024.89,2056.01,2173.83,2271.07,2602.42,600.20,615.50,37.69,0000 0000 0000 0000 000000
2017-12-18 00:55:04,0.19,3.82,0.00,16.05,19.22,22.55,14.40,46.83,1024.72,2056.02,2171.31,2269.43,2600.61,600.05,615.29,37.74,0000 0000 0000 0000 000000
2017-12-18 01:00:05,0.28,3.83,0.00,16.02,19.21,22.55,14.40,46.81,1024.66,2056.04,2167.91,2267.31,2598.17,600.28,615.65,37.79,0000 0000 0000 0000 000000
2017-12-18 01:05:06,0.33,3.85,0.00,16.02,19.20,22.51,14.38,46.73,1024.60,2056.05,2163.65,2264.57,2595.13,600.19,615.40,37.84,0000 0000 0000 0000 000000
2017-12-18 01:10:07,0.36,3.87,0.00,16.02,19.19,22.52,14.38,46.76,1024.49,2056.01,2158.87,2261.49,2591.69,600.08,615.17,37.89,0000 0000 0000 0000 000000
2017-12-18 01:15:09,0.31,3.88,0.00,16.01,19.19,22.50,14.37,46.68,1024.49,2056.04,2154.67,2258.78,2588.67,600.11,615.27,37.94,0000 0000 0000 0000 000000
2017-12-18 01:20:10,0.19,3.90,0.00,16.02,19.18,22.51,14.39,46.79,1024.50,2056.04,2151.68,2256.88,2586.56,600.11,615.25,37.99,0000 0000 0000 0000 000000
2017-12-18 01:25:11,0.23,3.91,0.00,16.01,19.17,22.50,14.34,46.76,1024.47,2056.07,2148.99,2255.23,2584.62,599.82,614.96,38.04,0000 0000 0000 0000 000000
2017-12-18 01:30:12,0.23,3.92,0.00,16.01,19.17,22.53,14.34,46.68,1024.50,2056.07,2145.66,2253.11,2582.27,599.88,615.19,38.09,0000 0000 0000 0000 000000
2017-12-18 01:35:14,0.15,3.93,0.00,15.98,19.15,22.53,14.29,46.74,1024.50,2056.12,2143.53,2251.72,2580.72,599.60,614.80,38.14,0000 0000 0000 0000 000000
2017-12-18 01:40:15,0.11,3.93,0.00,15.98,19.14,22.52,14.38,46.70,1024.43,2056.09,2141.87,2250.73,2579.58,600.11,615.31,38.19,0000 0000 0000 0000 000000
2017-12-18 01:45:16,0.10,3.94,0.00,15.97,19.14,22.47,14.35,46.77,1024.43,2056.09,2140.55,2249.83,2578.55,599.97,615.19,38.24,0000 0000 0000 0000 000000
2017-12-18 01:50:17,0.20,3.95,0.00,15.97,19.13,22.50,14.38,46.73,1024.43,2056.20,2138.31,2248.38,2576.89,599.94,615.26,38.29,0000 0000 0000 0000 000000
2017-12-18 01:55:19,0.23,3.96,0.00,15.99,19.12,22.48,14.39,46.73,1024.43,2056.17,2135.27,2246.46,2574.69,600.11,615.39,38.34,0000 0000 0000 0000 000000
2017-12-18 02:00:20,0.23,3.97,0.00,15.99,19.12,22.46,14.34,46.66,1024.43,2056.33,2132.39,2244.60,2572.65,599.74,614.85,38.39,0000 0000 0000 0000 000000
2017-12-18 02:05:22,0.17,3.98,0.00,15.99,19.10,22.49,14.35,46.71,1024.43,2056.32,2130.04,2243.05,2570.82,599.47,614.64,38.45,0000 0000 0000 0000 000000
2017-12-18 02:10:23,0.21,3.99,0.00,15.95,19.09,22.50,14.42,46.65,1024.43,2056.52,2127.91,2241.69,2569.35,600.01,615.34,38.50,0000 0000 0000 0000 000000
2017-12-18 02:15:24,0.17,4.00,0.00,15.96,19.09,22.49,14.45,46.72,1024.43,2056.74,2125.57,2240.28,2567.71,600.50,615.82,38.55,0000 0000 0000 0000 000000
2017-12-18 02:20:26,0.15,4.01,0.00,15.97,19.07,22.48,14.40,46.68,1024.43,2056.84,2123.38,2239.00,2566.20,600.29,615.53,38.60,0000 0000 0000 0000 000000
2017-12-18 02:25:27,0.19,4.02,0.00,15.95,19.07,22.47,14.36,46.66,1024.28,2056.96,2121.27,2237.75,2564.69,599.92,615.15,38.65,0000 0000 0000 0000 000000
2017-12-18 02:30:28,0.15,4.03,0.00,15.96,19.07,22.47,14.43,46.79,1024.27,2056.96,2119.29,2236.48,2563.30,600.23,615.46,38.70,0000 0000 0000 0000 000000
2017-12-18 02:35:29,0.16,4.04,0.00,15.93,19.07,22.45,14.42,46.71,1024.09,2056.98,2117.20,2235.10,2561.73,600.57,615.50,38.75,0000 0000 0000 0000 000000
2017-12-18 02:40:31,0.19,4.04,0.00,15.91,19.05,22.46,14.34,46.75,1023.99,2056.98,2114.91,2233.63,2560.04,599.60,614.71,38.80,0000 0000 0000 0000 000000
2017-12-18 02:45:32,0.17,4.05,0.00,15.92,19.04,22.43,14.36,46.68,1023.97,2056.98,2112.39,2232.07,2558.51,599.93,614.98,38.85,0000 0000 0000 0000 000000
2017-12-18 02:50:34,0.19,4.06,0.00,15.92,19.04,22.42,14.41,46.77,1023.94,2056.98,2110.09,2230.45,2556.71,600.06,615.24,38.90,0000 0000 0000 0000 000000
2017-12-18 02:55:35,0.20,4.07,0.00,15.92,19.04,22.42,14.37,46.69,1023.96,2056.98,2107.51,2228.75,2554.79,599.96,615.00,38.95,0000 0000 0000 0000 000000
2017-12-18 03:00:37,0.21,4.08,0.00,15.91,19.04,22.43,14.34,46.77,1023.96,2056.98,2104.86,2227.01,2552.87,599.82,614.92,39.00,0000 0000 0000 0000 000000
2017-12-18 03:05:38,0.21,4.09,0.00,15.90,19.04,22.42,14.37,46.68,1023.94,2056.98,2102.16,2225.32,2550.93,600.08,615.21,39.05,0000 0000 0000 0000 000000
2017-12-18 03:10:39,0.21,4.10,0.00,15.89,19.04,22.41,14.42,46.71,1023.94,2056.98,2099.51,2223.62,2548.99,599.79,614.98,39.10,0000 0000 0000 0000 000000
2017-12-18 03:15:41,0.22,4.12,0.00,15.89,19.04,22.40,14.37,46.73,1023.94,2056.98,2096.81,2221.82,2547.02,600.09,615.12,39.15,0000 0000 0000 0000 000000
2017-12-18 03:20:42,0.22,4.13,0.00,15.89,19.04,22.40,14.37,46.79,1023.94,2056.98,2094.01,2219.97,2544.99,599.70,614.78,39.20,0000 0000 0000 0000 000000
2017-12-18 03:25:44,0.22,4.14,0.00,15.90,19.04,22.36,14.44,46.77,1023.93,2056.99,2091.17,2218.11,2542.89,600.54,615.66,39.25,0000 0000 0000 0000 000000
2017-12-18 03:30:45,0.22,4.15,0.00,15.90,19.04,22.36,14.38,46.78,1023.84,2056.98,2088.28,2216.24,2540.67,600.04,615.06,39.30,0000 0000 0000 0000 000000
2017-12-18 03:35:46,0.22,4.16,0.00,15.88,19.04,22.37,14.33,46.72,1023.76,2056.98,2085.51,2214.40,2538.54,599.91,614.98,39.35,0000 0000 0000 0000 000000
2017-12-18 03:40:47,0.21,4.17,0.00,15.87,19.03,22.40,14.38,46.77,1023.86,2056.98,2083.00,2212.73,2536.73,600.08,615.17,39.40,0000 0000 0000 0000 000000
2017-12-18 03:45:48,0.18,4.18,0.00,15.87,19.02,22.37,14.43,46.76,1023.85,2056.98,2080.48,2211.15,2535.03,600.25,615.53,39.46,0000 0000 0000 0000 000000
2017-12-18 03:50:50,0.41,4.20,0.00,15.87,19.02,22.36,14.34,46.75,1023.86,2056.97,2076.34,2208.42,2531.92,599.97,615.02,39.51,0000 0000 0000 0000 000000
2017-12-18 03:55:51,0.55,4.22,0.00,15.87,19.02,22.35,14.39,46.81,1023.80,2056.97,2069.43,2203.79,2526.83,599.97,615.03,39.56,0000 0000 0000 0000 000000
2017-12-18 04:00:53,0.30,4.24,0.00,15.87,19.02,22.36,14.41,46.73,1023.67,2056.97,2065.20,2201.01,2523.77,600.04,615.00,39.61,0000 0000 0000 0000 000000
2017-12-18 04:05:54,0.40,4.26,0.00,15.86,19.02,22.36,14.33,46.64,1023.54,2056.99,2060.51,2197.77,2520.08,599.68,614.63,39.66,0000 0000 0000 0000 000000
2017-12-18 04:10:55,0.25,4.28,0.00,15.85,19.01,22.36,14.36,46.67,1023.57,2056.99,2057.21,2195.64,2517.59,599.81,614.82,39.71,0000 0000 0000 0000 000000
2017-12-18 04:15:57,0.24,4.29,0.00,15.84,19.00,22.36,14.40,46.71,1023.53,2056.99,2054.18,2193.64,2515.41,599.93,614.83,39.76,0000 0000 0000 0000 000000
2017-12-18 04:20:59,0.25,4.31,0.00,15.86,18.99,22.34,14.43,46.73,1023.69,2056.99,2051.13,2191.64,2513.16,600.08,615.09,39.81,0000 0000 0000 0000 000000
2017-12-18 04:26:00,0.25,4.32,0.00,15.87,18.99,22.34,14.37,46.77,1023.83,2056.98,2047.93,2189.57,2510.92,599.98,615.12,39.86,0000 0000 0000 0000 000000
2017-12-18 04:31:02,0.23,4.33,0.00,15.87,18.99,22.34,14.31,46.81,1023.66,2056.99,2045.26,2187.64,2508.64,599.93,614.82,39.91,0000 0000 0000 0000 000000
2017-12-18 04:36:03,0.24,4.34,0.00,15.88,18.99,22.35,14.41,46.86,1023.56,2056.99,2042.44,2185.69,2506.33,599.66,614.44,39.96,0000 0000 0000 0000 000000
2017-12-18 04:41:04,0.24,4.36,0.00,15.88,18.98,22.33,14.34,46.81,1023.51,2056.98,2039.50,2183.69,2504.10,599.66,614.42,40.01,0000 0000 0000 0000 000000
2017-12-18 04:46:05,0.24,4.37,0.00,15.84,18.97,22.32,14.31,46.74,1023.48,2056.98,2036.57,2181.74,2501.82,599.49,614.37,40.06,0000 0000 0000 0000 000000
2017-12-18 04:51:07,0.26,4.38,0.00,15.84,18.97,22.34,14.34,46.82,1023.49,2056.99,2033.44,2179.68,2499.64,599.77,614.69,40.11,0000 0000 0000 0000 000000
2017-12-18 04:56:08,0.26,4.39,0.00,15.87,18.97,22.32,14.42,46.91,1023.46,2056.99,2030.22,2177.60,2497.45,599.82,614.75,40.16,0000 0000 0000 0000 000000
2017-12-18 05:01:10,0.24,4.41,0.00,15.86,18.96,22.31,14.31,46.83,1023.46,2056.99,2027.32,2175.65,2495.23,599.71,614.56,40.21,0000 0000 0000 0000 000000
2017-12-18 05:06:11,0.20,4.42,0.00,15.85,18.95,22.33,14.36,46.77,1023.45,2056.99,2024.80,2174.04,2493.34,600.02,614.96,40.26,0000 0000 0000 0000 000000
2017-12-18 05:11:12,0.21,4.43,0.00,15.86,18.94,22.31,14.38,46.80,1023.46,2056.99,2022.15,2172.35,2491.35,600.15,615.03,40.31,0000 0000 0000 0000 000000
2017-12-18 05:16:13,0.22,4.44,0.00,15.85,18.94,22.31,14.38,46.73,1023.45,2056.99,2019.57,2170.61,2489.36,600.04,614.94,40.37,0000 0000 0000 0000 000000
2017-12-18 05:21:15,0.21,4.45,0.00,15.84,18.94,22.32,14.37,46.67,1023.45,2056.99,2016.92,2168.81,2487.38,599.91,614.82,40.42,0000 0000 0000 0000 000000
2017-12-18 05:26:16,0.22,4.46,0.00,15.84,18.93,22.30,14.36,46.76,1023.45,2056.99,2014.26,2167.11,2485.44,599.99,614.87,40.47,0000 0000 0000 0000 000000
2017-12-18 05:31:17,0.22,4.47,0.00,15.83,18.92,22.31,14.40,46.86,1023.44,2056.99,2011.52,2165.27,2483.50,599.98,614.90,40.52,0000 0000 0000 0000 000000
2017-12-18 05:36:19,0.20,4.48,0.00,15.82,18.92,22.30,14.37,46.77,1023.40,2056.99,2009.14,2163.68,2481.65,600.17,615.10,40.57,0000 0000 0000 0000 000000
2017-12-18 05:41:20,0.13,4.49,0.00,15.82,18.92,22.29,14.35,46.79,1023.39,2056.99,2007.43,2162.52,2480.37,599.78,614.65,40.62,0000 0000 0000 0000 000000
2017-12-18 05:46:22,0.13,4.50,0.00,15.84,18.90,22.32,14.44,46.83,1023.43,2056.99,2005.75,2161.44,2479.23,600.66,615.48,40.67,0000 0000 0000 0000 000000
2017-12-18 05:51:23,0.18,4.51,0.00,15.84,18.89,22.30,14.43,46.87,1023.34,2056.99,2003.72,2160.20,2477.70,600.13,615.04,40.72,0000 0000 0000 0000 000000
2017-12-18 05:56:25,0.30,4.52,0.00,15.83,18.89,22.30,14.30,46.86,1023.19,2057.00,2000.44,2157.92,2475.18,599.94,614.78,40.77,0000 0000 0000 0000 000000
2017-12-18 06:01:26,0.31,4.54,0.00,15.84,18.89,22.29,14.36,46.80,1023.15,2057.01,1996.99,2155.46,2472.30,599.92,614.65,40.82,0000 0000 0000 0000 000000
2017-12-18 06:06:27,0.38,4.55,0.00,15.84,18.89,22.31,14.44,46.83,1023.26,2057.00,1992.81,2152.50,2468.91,600.29,615.12,40.87,0000 0000 0000 0000 000000
2017-12-18 06:11:28,0.38,4.57,0.00,15.85,18.89,22.30,14.39,46.80,1023.30,2057.00,1988.55,2149.48,2465.50,599.92,614.83,40.92,0000 0000 0000 0000 000000
2017-12-18 06:16:30,0.37,4.59,0.00,15.83,18.88,22.28,14.36,46.95,1023.30,2057.00,1984.39,2146.52,2462.09,599.76,614.53,40.97,0000 0000 0000 0000 000000
2017-12-18 06:21:31,0.37,4.61,0.00,15.83,18.87,22.28,14.42,46.93,1023.31,2057.01,1980.27,2143.57,2458.77,600.15,615.00,41.02,0000 0000 0000 0000 000000
2017-12-18 06:26:33,0.34,4.63,0.00,15.83,18.87,22.27,14.36,46.92,1023.27,2057.00,1976.40,2140.78,2455.68,600.14,614.97,41.07,0000 0000 0000 0000 000000
2017-12-18 06:31:34,0.28,4.65,0.00,15.83,18.87,22.27,14.40,46.92,1023.18,2057.00,1973.22,2138.54,2453.09,599.84,614.57,41.12,0000 0000 0000 0000 000000
2017-12-18 06:36:35,0.23,4.66,0.00,15.84,18.87,22.25,14.42,46.93,1023.24,2057.00,1970.49,2136.66,2450.91,599.89,614.79,41.17,0000 0000 0000 0000 000000
2017-12-18 06:41:36,0.23,4.67,0.00,15.82,18.87,22.26,14.37,46.80,1023.38,2057.00,1967.98,2134.89,2448.92,599.47,614.32,41.22,0000 0000 0000 0000 000000
2017-12-18 06:46:37,0.20,4.68,0.00,15.84,18.87,22.26,14.37,46.92,1023.43,2057.00,1965.43,2133.20,2447.03,599.77,614.66,41.27,0000 0000 0000 0000 000000
2017-12-18 06:51:39,0.24,4.69,0.00,15.84,18.87,22.25,14.33,46.97,1023.35,2057.00,1962.78,2131.41,2445.03,599.73,614.69,41.33,0000 0000 0000 0000 000000
2017-12-18 06:56:40,0.25,4.71,0.00,15.81,18.87,22.23,14.36,46.89,1023.19,2057.00,1959.98,2129.53,2442.88,599.98,614.88,41.38,0000 0000 0000 0000 000000
2017-12-18 07:01:41,0.34,4.72,0.00,15.76,18.87,22.25,14.47,47.05,1023.07,2057.00,1956.28,2127.13,2440.13,600.41,615.21,41.43,0000 0000 0000 0000 000000
2017-12-18 07:06:43,0.30,4.74,0.00,15.75,18.87,22.24,14.36,46.96,1023.12,2057.00,1952.63,2124.83,2437.53,600.11,615.01,41.48,0000 0000 0000 0000 000000
2017-12-18 07:11:44,0.25,4.75,0.00,15.74,18.87,22.23,14.36,46.96,1023.20,2057.00,1949.60,2122.84,2435.34,599.90,614.89,41.53,0000 0000 0000 0000 000000
2017-12-18 07:16:45,0.26,4.76,0.00,15.84,18.87,22.24,14.42,46.99,1023.33,2057.00,1946.58,2120.85,2433.11,600.29,615.13,41.58,0000 0000 0000 0000 000000
2017-12-18 07:21:47,0.29,4.78,0.00,15.86,18.87,22.22,14.37,47.12,1023.39,2057.00,1943.36,2118.67,2430.82,599.94,614.78,41.63,0000 0000 0000 0000 000000
2017-12-18 07:26:48,0.28,4.79,0.00,15.87,18.87,22.24,14.41,47.03,1023.40,2057.00,1940.27,2116.51,2428.34,600.01,614.72,41.68,0000 0000 0000 0000 000000
2017-12-18 07:31:49,0.25,4.81,0.00,15.90,18.88,22.25,14.32,47.02,1023.40,2057.00,1937.49,2114.54,2426.03,600.00,614.93,41.73,0000 0000 0000 0000 000000
2017-12-18 07:36:50,0.26,4.82,0.00,15.93,18.89,22.24,14.34,47.05,1023.45,2056.99,1934.58,2112.58,2423.94,599.95,614.65,41.78,0000 0000 0000 0000 000000
2017-12-18 07:41:51,0.29,4.83,0.00,15.97,18.89,22.24,14.34,46.97,1023.45,2056.98,1931.39,2110.55,2421.50,599.61,614.38,41.83,0000 0000 0000 0000 000000
2017-12-18 07:46:53,0.29,4.85,0.00,16.00,18.89,22.25,14.35,46.99,1023.45,2056.99,1928.20,2108.36,2418.87,599.92,614.39,41.88,0000 0000 0000 0000 000000
2017-12-18 07:51:54,0.31,4.86,0.00,16.03,18.91,22.29,14.33,46.97,1023.45,2056.99,1924.92,2106.06,2416.26,600.03,614.51,41.93,0000 0000 0000 0000 000000
2017-12-18 07:56:55,0.35,4.88,0.00,16.08,18.92,22.29,14.31,47.07,1023.45,2056.97,1921.16,2103.41,2413.34,599.86,614.31,41.98,0000 0000 0000 0000 000000
2017-12-18 08:01:57,0.39,4.90,0.00,16.10,18.93,22.30,14.38,46.95,1023.46,2056.98,1917.11,2100.56,2410.14,600.04,614.42,42.03,0000 0000 0000 0000 000000
2017-12-18 08:06:58,0.36,4.92,0.00,16.13,18.94,22.31,14.29,46.89,1023.46,2056.97,1913.17,2097.75,2406.90,599.99,614.29,42.08,0000 0000 0000 0000 000000
2017-12-18 08:11:59,0.31,4.93,0.00,16.16,18.96,22.32,14.31,46.93,1023.45,2056.78,1909.56,2095.19,2404.00,600.01,614.12,42.13,0000 0000 0000 0000 000000
2017-12-18 08:17:00,0.35,4.95,0.00,16.16,18.98,22.34,14.35,46.97,1023.45,2056.65,1905.75,2092.51,2401.03,600.17,614.41,42.18,0000 0000 0000 0000 000000
2017-12-18 08:22:02,0.37,4.97,0.00,16.16,18.99,22.38,14.38,47.04,1023.45,2056.41,1901.47,2089.55,2397.67,600.31,614.57,42.24,0000 0000 0000 0000 000000
2017-12-18 08:27:03,0.39,4.99,0.00,16.19,19.01,22.39,14.36,46.98,1023.45,2056.12,1897.03,2086.40,2394.11,600.10,614.26,42.29,0000 0000 0000 0000 000000
2017-12-18 08:32:04,0.41,5.01,0.00,16.23,19.03,22.40,14.41,46.93,1023.45,2056.14,1892.66,2083.34,2390.68,599.95,614.10,42.34,0000 0000 0000 0000 000000
2017-12-18 08:37:06,0.45,5.04,0.00,16.22,19.04,22.42,14.22,46.93,1023.45,2056.05,1887.93,2080.05,2387.02,599.94,614.09,42.39,0000 0000 0000 0000 000000
2017-12-18 08:42:07,0.45,5.06,0.00,16.25,19.07,22.43,14.33,46.93,1023.45,2056.01,1883.07,2076.66,2383.28,600.00,614.12,42.44,0000 0000 0000 0000 000000
2017-12-18 08:47:09,0.43,5.08,0.00,16.28,19.09,22.46,14.51,47.07,1023.45,2056.00,1878.50,2073.44,2379.65,600.28,614.22,42.49,0000 0000 0000 0000 000000
2017-12-18 08:52:10,0.41,5.10,0.00,16.31,19.11,22.46,14.27,46.98,1023.45,2056.00,1874.18,2070.41,2376.18,599.65,613.55,42.54,0000 0000 0000 0000 000000
2017-12-18 08:57:11,0.43,5.12,0.00,16.30,19.13,22.51,14.33,46.88,1023.45,2056.00,1869.79,2067.29,2372.62,599.80,613.79,42.59,0000 0000 0000 0000 000000
2017-12-18 09:02:13,0.44,5.14,0.00,16.33,19.14,22.51,14.32,46.90,1023.45,2056.00,1865.23,2064.11,2369.07,599.98,613.84,42.64,0000 0000 0000 0000 000000
2017-12-18 09:07:14,0.42,5.17,0.00,16.33,19.16,22.54,14.31,46.98,1023.41,2055.98,1860.76,2060.96,2365.67,599.96,613.86,42.69,0000 0000 0000 0000 000000
2017-12-18 09:12:15,0.41,5.19,0.00,16.34,19.18,22.55,14.27,46.93,1023.34,2055.94,1856.38,2057.86,2362.22,599.90,613.65,42.74,0000 0000 0000 0000 000000
2017-12-18 09:17:16,0.41,5.21,0.00,16.35,19.19,22.57,14.34,46.88,1023.34,2055.86,1852.13,2054.78,2358.83,599.95,613.71,42.79,0000 0000 0000 0000 000000
2017-12-18 09:22:18,0.39,5.23,0.00,16.37,19.20,22.63,14.42,46.98,1023.34,2055.70,1847.83,2051.80,2355.49,600.17,613.95,42.84,0000 0000 0000 0000 000000
2017-12-18 09:27:19,0.37,5.25,0.00,16.36,19.22,22.60,14.41,47.04,1023.38,2055.36,1843.59,2048.79,2352.13,600.21,613.95,42.89,0000 0000 0000 0000 000000
2017-12-18 09:32:20,0.34,5.27,0.00,16.38,19.22,22.64,14.29,46.89,1023.14,2055.12,1839.73,2046.20,2348.84,599.91,613.53,42.94,0000 0000 0000 0000 000000
2017-12-18 09:37:22,0.35,5.29,0.00,16.39,19.24,22.65,14.34,46.76,1023.06,2055.03,1836.01,2043.61,2345.81,600.10,613.58,42.99,0000 0000 0000 0000 000000
2017-12-18 09:42:23,0.36,5.30,0.00,16.41,19.25,22.68,14.30,46.73,1023.04,2055.03,1832.34,2041.06,2342.94,600.10,613.64,43.04,0000 0000 0000 0000 000000
2017-12-18 09:47:24,0.37,5.32,0.00,16.43,19.27,22.69,14.44,46.64,1023.06,2055.01,1828.62,2038.46,2340.06,600.05,613.50,43.10,0000 0000 0000 0000 000000
2017-12-18 09:52:26,0.37,5.34,0.00,16.40,19.27,22.67,14.27,46.71,1023.00,2055.00,1824.79,2035.84,2337.10,599.86,613.21,43.15,0000 0000 0000 0000 000000
2017-12-18 09:57:27,0.36,5.36,0.00,16.41,19.29,22.68,14.26,46.62,1023.11,2055.00,1821.07,2033.29,2334.21,599.82,613.38,43.20,0000 0000 0000 0000 000000
2017-12-18 10:02:28,0.35,5.38,0.00,16.40,19.29,22.70,14.34,46.75,1023.13,2055.00,1817.43,2030.82,2331.45,599.90,613.53,43.25,0000 0000 0000 0000 000000
2017-12-18 10:07:30,0.34,5.40,0.00,16.42,19.30,22.72,14.40,46.76,1023.15,2055.00,1813.95,2028.33,2328.71,600.15,613.65,43.30,0000 0000 0000 0000 000000
2017-12-18 10:12:31,0.34,5.41,0.00,16.42,19.32,22.71,14.34,46.77,1023.07,2055.00,1810.55,2026.00,2326.16,600.28,613.58,43.35,0000 0000 0000 0000 000000
2017-12-18 10:17:32,0.29,5.43,0.00,16.41,19.32,22.73,14.32,46.84,1023.06,2055.00,1807.52,2023.89,2323.80,599.96,613.50,43.40,0000 0000 0000 0000 000000
2017-12-18 10:22:33,0.31,5.44,0.00,16.42,19.34,22.74,14.33,47.00,1023.22,2054.99,1804.35,2021.71,2321.32,599.76,613.22,43.45,0000 0000 0000 0000 000000
2017-12-18 10:27:35,0.28,5.46,0.00,16.43,19.34,22.74,14.39,46.99,1023.19,2054.97,1801.38,2019.58,2318.87,600.15,613.66,43.50,0000 0000 0000 0000 000000
2017-12-18 10:32:36,0.31,5.47,0.00,16.43,19.36,22.73,14.38,47.09,1023.40,2054.98,1798.37,2017.44,2316.43,600.39,614.00,43.55,0000 0000 0000 0000 000000
2017-12-18 10:37:37,0.32,5.49,0.00,16.40,19.37,22.75,14.37,46.98,1023.45,2054.97,1795.24,2015.27,2313.98,599.91,613.64,43.60,0000 0000 0000 0000 000000
2017-12-18 10:42:38,0.35,5.51,0.00,16.40,19.38,22.77,14.36,46.91,1023.37,2054.94,1791.81,2012.74,2311.20,600.00,613.62,43.65,0000 0000 0000 0000 000000
2017-12-18 10:47:40,0.40,5.53,0.00,16.42,19.39,22.77,14.31,46.98,1023.23,2054.88,1787.97,2010.03,2308.21,600.00,613.64,43.70,0000 0000 0000 0000 000000
2017-12-18 10:52:41,0.40,5.55,0.00,16.43,19.39,22.79,14.21,46.85,1023.14,2054.79,1783.94,2007.21,2305.03,599.52,612.89,43.75,0000 0000 0000 0000 000000
2017-12-18 10:57:43,0.41,5.57,0.00,16.42,19.39,22.78,14.41,46.92,1023.18,2054.77,1779.90,2004.34,2301.88,600.26,613.78,43.80,0000 0000 0000 0000 000000
2017-12-18 11:02:44,0.27,5.59,0.00,16.42,19.41,22.80,14.38,46.88,1023.15,2054.47,1776.72,2002.06,2299.18,600.14,613.55,43.85,0000 0000 0000 0000 000000
2017-12-18 11:07:45,0.27,5.60,0.00,16.42,19.42,22.79,14.37,46.74,1023.18,2054.24,1773.77,2000.02,2296.96,600.02,613.59,43.90,0000 0000 0000 0000 000000
2017-12-18 11:12:46,0.30,5.61,0.00,16.44,19.42,22.82,14.33,46.82,1023.14,2054.06,1770.64,1997.83,2294.55,600.00,613.37,43.95,0000 0000 0000 0000 000000
2017-12-18 11:17:47,0.36,5.63,0.00,16.41,19.42,22.82,14.31,46.71,1022.99,2054.07,1767.23,1995.42,2291.89,599.75,613.23,44.01,0000 0000 0000 0000 000000
2017-12-18 11:22:49,0.32,5.65,0.00,16.42,19.42,22.81,14.34,46.83,1022.97,2054.06,1763.98,1993.14,2289.23,599.87,613.33,44.06,0000 0000 0000 0000 000000
2017-12-18 11:27:50,0.28,5.66,0.00,16.42,19.43,22.81,14.38,46.83,1022.96,2054.04,1761.20,1991.14,2286.89,600.08,613.37,44.11,0000 0000 0000 0000 000000
2017-12-18 11:32:51,0.26,5.68,0.00,16.41,19.43,22.81,14.32,46.74,1022.97,2054.02,1758.68,1989.33,2284.80,599.85,613.25,44.16,0000 0000 0000 0000 000000
2017-12-18 11:37:53,0.26,5.69,0.00,16.41,19.43,22.85,14.34,46.80,1022.96,2054.02,1756.17,1987.58,2282.80,600.23,613.63,44.21,0000 0000 0000 0000 000000
2017-12-18 11:42:54,0.26,5.70,0.00,16.41,19.43,22.81,14.39,46.81,1022.96,2054.00,1753.62,1985.84,2280.87,599.94,613.38,44.26,0000 0000 0000 0000 000000
2017-12-18 11:47:55,0.26,5.72,0.00,16.39,19.42,22.85,14.40,46.80,1022.96,2054.00,1751.14,1984.16,2278.88,600.08,613.49,44.31,0000 0000 0000 0000 000000
2017-12-18 11:52:56,0.25,5.73,0.00,16.38,19.42,22.84,14.37,46.75,1022.96,2054.00,1748.54,1982.53,2276.92,600.00,613.51,44.36,0000 0000 0000 0000 000000
2017-12-18 11:57:58,0.27,5.75,0.00,16.41,19.42,22.84,14.36,46.73,1022.96,2054.00,1745.96,1980.75,2275.00,600.13,613.53,44.41,0000 0000 0000 0000 000000
2017-12-18 12:02:59,0.23,5.76,0.00,16.41,19.42,22.87,14.35,46.72,1022.94,2054.00,1743.59,1979.14,2273.17,599.89,613.26,44.46,0000 0000 0000 0000 000000
2017-12-18 12:08:01,0.24,5.77,0.00,16.38,19.42,22.84,14.38,46.72,1022.91,2054.01,1741.35,1977.59,2271.36,599.97,613.46,44.51,0000 0000 0000 0000 000000
2017-12-18 12:13:02,0.23,5.78,0.00,16.38,19.42,22.84,14.33,46.77,1022.94,2054.01,1739.16,1976.04,2269.56,600.06,613.52,44.56,0000 0000 0000 0000 000000
2017-12-18 12:18:03,0.25,5.79,0.00,16.39,19.42,22.84,14.32,46.81,1022.75,2054.01,1736.75,1974.43,2267.79,599.70,612.99,44.61,0000 0000 0000 0000 000000
2017-12-18 12:23:04,0.24,5.81,0.00,16.41,19.42,22.84,14.26,46.73,1022.73,2054.00,1734.48,1972.79,2265.96,600.02,613.22,44.66,0000 0000 0000 0000 000000
2017-12-18 12:28:05,0.24,5.82,0.00,16.39,19.41,22.83,14.30,46.72,1022.68,2054.00,1732.11,1971.18,2264.16,600.13,613.31,44.71,0000 0000 0000 0000 000000
2017-12-18 12:33:07,0.25,5.83,0.00,16.38,19.40,22.85,14.38,46.81,1022.70,2054.00,1729.68,1969.52,2262.37,600.17,613.47,44.76,0000 0000 0000 0000 000000
2017-12-18 12:38:08,0.23,5.84,0.00,16.38,19.40,22.83,14.24,46.66,1022.65,2054.00,1727.46,1967.93,2260.54,599.94,613.12,44.81,0000 0000 0000 0000 000000
2017-12-18 12:43:09,0.23,5.86,0.00,16.37,19.39,22.85,14.25,46.71,1022.86,2054.01,1725.33,1966.40,2258.71,599.79,613.17,44.86,0000 0000 0000 0000 000000
2017-12-18 12:48:11,0.53,5.87,0.00,16.37,19.39,22.85,14.33,46.73,1022.88,2054.00,1721.35,1963.90,2255.89,599.85,613.36,44.92,0000 0000 0000 0000 000000
2017-12-18 12:53:12,0.28,5.90,0.00,16.38,19.39,22.83,14.30,46.73,1022.92,2054.00,1717.08,1961.45,2253.06,599.70,613.24,44.97,0000 0000 0000 0000 000000
2017-12-18 12:58:13,0.22,5.91,0.00,16.34,19.39,22.81,14.34,46.62,1022.90,2054.00,1714.95,1959.91,2251.41,599.93,613.27,45.02,0000 0000 0000 0000 000000